Regional Weather Roundup
Issued by NWS Jackson, KY

Home | Current Version | Previous Version | Text Only | Print | Product List | Glossary On
Versions: 1 2 3 4 5 6 7 8 9 10 11 12 13 14 15 16 17 18 19 20 21 22 23 24 25 26 27 28
000
ASUS43 KJKL 190110
RWRJKL

EAST KENTUCKY HOURLY WEATHER ROUNDUP
NATIONAL WEATHER SERVICE JACKSON KY
900 PM EDT WED OCT 18 2017

NOTE: "FAIR" INDICATES FEW OR NO CLOUDS BELOW 12,000 FEET WITH
NO SIGNIFICANT WEATHER AND/OR OBSTRUCTIONS TO VISIBILITY.

* THESE REPORTS ARE NOT UNDER NWS QUALITY CONTROL AND MAY NOT
  REPORT WEATHER SUCH AS PRECIPITATION AND FOG.

KYZ079-080-083-085-087-088-110-112-115-119-120-190200
...EASTERN KENTUCKY...

CITY           SKY/WX    TMP DP  RH WIND       PRES   REMARKS
JACKSON        CLOUDY    60  41  49 CALM      30.26S
LONDON         CLEAR     53  48  83 CALM      30.26S
SOMERSET*      CLEAR     52  46  82 CALM      30.27S
MONTICELLO*    CLEAR     46  44  93 CALM      30.28R
WILLIAMSBURG*  CLEAR     55  50  82 CALM      30.27R
MIDDLESBORO*   CLEAR     52  47  82 W3        30.29S
HARLAN APT*    PTCLDY    52  46  82 CALM      30.29S
PIKE CO APT*     N/A     60  45  57 CALM      30.26S
BIG SANDY APT* CLEAR     56  47  71 CALM      30.26S
MOREHEAD APT*  CLEAR     55  46  71 S3        30.26S
$$

KYZ035-036-041-042-044-050-067-078-099-190200
...CENTRAL KENTUCKY...

CITY           SKY/WX    TMP DP  RH WIND       PRES   REMARKS
MT STERLING*   CLEAR     48  45  87 SW3       30.26S
FLEMING/MASON* CLEAR     57  43  60 S5        30.25S
DANVILLE*      CLEAR     50  46  87 CALM      30.26S
LEXINGTON      CLEAR     58  45  62 S6        30.24S
FRANKFORT      CLEAR     52  44  74 CALM      30.22S
LOUISVILLE     CLEAR     61  48  62 S6        30.21S
LEBANON*         N/A     57  45  62 SE7       30.24S
GLASGOW*       CLEAR     50  46  84 CALM      30.23S
BOWLING GREEN  CLEAR     55  47  74 CALM      30.23R
$$

KYZ091>093-OHZ055-061-077-WVZ005-015-034-035-042-190200
...SOUTHERN OHIO/WEST VIRGINIA...

CITY           SKY/WX    TMP DP  RH WIND       PRES   REMARKS
COVINGTON      CLEAR     55  46  71 S5        30.21S
COLUMBUS       CLEAR     59  40  49 S5        30.21R
DAYTON         CLEAR     59  44  57 S8        30.20S
WILMINGTON     CLEAR     53  44  71 S6        30.21S
HUNTINGTON     CLEAR     56  43  61 CALM      30.24S
CHARLESTON     CLEAR     55  45  68 CALM      30.25R
PINEVILLE*     CLEAR     51  45  82 MISG      30.33R
BECKLEY        CLEAR     57  39  51 S8        30.30R
BLUEFIELD      CLEAR     57  35  43 VRB3      30.32S
LOGAN CO APT*    N/A     59  43  55 CALM      30.26S
$$

VAZ002-007-008-TNZ017-027-036-066-071-190200
...SOUTHWEST VIRGINIA/EAST TENNESSEE...

CITY           SKY/WX    TMP DP  RH WIND       PRES   REMARKS
WISE*          PTCLDY    52  41  66 SW3       30.32R
JONESVILLE*      N/A     50  46  87 CALM      30.31R
ABINGDON*      PTCLDY    55  44  68 CALM      30.30S
BRISTOL        PTCLDY    52  46  80 CALM      30.29R
MORRISTOWN*    CLEAR     54  46  76 CALM      30.27S
SEVIERVILLE*   CLEAR     55  48  76 CALM      30.28R
KNOXVILLE      PTCLDY    58  50  75 CALM      30.26S
LAFOLLETTE*    CLEAR     52  52 100 CALM      30.31S
OAK RIDGE      CLEAR     55  53  93 CALM      30.29R
CROSSVILLE     CLEAR     51  43  74 CALM      30.29R
NASHVILLE      PTCLDY    59  46  62 S5        30.24R
$$

...KEY TO REMARKS...
VSB - VISIBILITY IN MILES
WCI - WIND CHILL INDEX
HX  - HEAT INDEX

$$




USA.gov is the U.S. government's official web portal to all federal, state and local government web resources and services.